Powrót do katalogu

DELTA 1 DEB

AktywnySSO
NORAD 21443·DEBRIS·🇺🇸 United States

Wystrzelony Jun 12, 1975 z Vandenberg Space Force Base

Loading…

Następne Przeloty (najbliższe 24 godziny)

TLE

ŚwieżeSource: Space-Track

Epoka: Sep 14, 2026, 07:32 UTC

1 21443U 75052EB  26257.31407530  .00000038  00000-0  16497-3 0  9999
2 21443  99.8433  23.9537 0068827 100.4863 288.4753 13.31721196718506

Śledź DELTA 1 DEB w czasie rzeczywistym z AllMySat

Download on the App Store